Weather in Ternovka

Russia / Belgorod Oblast     50°43′41″N   36°35′34″E
В апреле 2022 года жителям России запретили посещать сайт meteo.paraplan.net по решению Генеральной прокуратуры. Аудитория сайта уменьшилась в 10 раз. Владельцы сайта не видят смысла в поддержке погодного сервера в таких условиях. Сайт будет закрыт в октябре.
temp.,
°C
wind,
m/s
gust,
m/s
humid.,
%
clouds,
%
prec.,
mm/h
press.,
hPa
HPBL,
m
25 september, sun
sun2500:00+8w61186100 0.1 1009748
03:00+8wsw81487100 0.6 10091188
06:00+8w91589100 4.1 10081345
09:00+8w91583100 5.8 10091236
12:00+11w9146613 0.0 10111249
15:00+14w914495 0.0 10111692
18:00+12w713565 0.0 1012702
21:00+9w6146638 0.0 1014425
26 september, mon
mon2600:00+8w4117368 0.0 1014267
03:00+8wsw497339 0.0 1014194
06:00+9sw3774100 0.0 1014164
09:00+11wsw3668100 0.0 1015278
12:00+15wsw575182 0.0 10141367
15:00+14w3559100 0.0 1015571
18:00+12sse0168100 0.0 101410
21:00+12ene1171100 0.1 101413
27 september, tue
tue2700:00+10ese2494100 4.9 1014181
03:00+10e3798100 15.1 1012277
06:00+10e3496100 2.1 1011217
09:00+12se228785 2.1 1010191
12:00+15s2478100 0.0 1010470
15:00+16sse2380100 0.0 1009464
18:00+14ese2392100 0.9 100952
21:00+13e4796100 2.0 1008217
28 september, wed
wed2800:00+13ese51385100 0.0 1006351
03:00+12ese51185100 0.0 1004260
06:00+12se51182100 0.0 1003278
09:00+12se4882100 0.5 1002224
12:00+13sse61284100 0.1 1001793
15:00+13ssw41098100 2.1 1000462
18:00+14s3598100 1.3 1002197
21:00+14w239461 1.3 100372
29 september, thu
thu2900:00+11wnw38965 0.1 1005173
03:00+10wnw38945 0.1 1006153
06:00+10wnw399318 0.0 1008168
09:00+14nw48767 0.0 1010351
12:00+17wnw56615 0.0 10111018
15:00+18wnw565587 0.0 10121512
18:00+14nnw3470100 0.0 101460
21:00+13nw2272100 0.0 101511